Weather in Mal'tsevo

Russia / Smolensk Oblast     55°30′24″N   35°09′16″E
temp.,
°C
wind,
m/s
gust,
m/s
humid.,
%
clouds,
%
prec.,
mm/h
press.,
hPa
HPBL,
m
14 may, fri
fri1400:00+7sse379575 0.0 1016129
03:00+6sse36965 0.0 1016103
06:00+7se379390 0.0 1016170
09:00+13se487498 0.0 1015475
12:00+18se575674 0.0 10141340
15:00+20se565137 0.0 10131685
18:00+17se3780100 0.3 1011570
21:00+13ese51494100 0.9 1010525
15 may, sat
sat1500:00+13ese5109882 0.5 1009294
03:00+13se499887 0.5 1008259
06:00+12sse31097100 0.0 1008281
09:00+16ssw487812 0.0 1008532
12:00+19s68628 0.5 10081482
15:00+19ssw576224 1.5 10081505
18:00+17ssw587953 1.3 1008889
21:00+12s3109560 2.3 1009272
16 may, sun
sun1600:00+12ssw410975 0.0 1009338
03:00+10ssw3109817 0.0 1010275
06:00+11s399719 0.0 1011292
09:00+15ssw478219 0.0 1012624
12:00+17sw5674100 1.4 10121206
15:00+17sw4677100 2.1 1013886
18:00+17sw35781 0.6 1013735
21:00+13ssw11906 0.8 101311
17 may, mon
mon1700:00+12sse229282 0.0 101412
03:00+11ese229490 0.0 101429
06:00+12ese369313 0.0 1014132
09:00+18ese4771100 0.0 1013458
12:00+22ese5859100 0.0 10111220
15:00+24ese6105872 0.0 10091552
18:00+23ese6116665 0.0 10071082
21:00+20se6157565 0.0 1006743
18 may, tue
tue1800:00+18se5147955 0.0 1006582
03:00+16se41190100 0.0 1005309
06:00+15sse31092100 0.0 1005320
09:00+19s3681100 0.4 1005621
12:00+20s4677100 0.1 1006946
15:00+18ssw3590100 2.6 1005485
18:00+18sw128892 2.8 1004355
21:00+15w239679 6.9 100564